Wetterdaten: Montag, 19.10.2015
Datum Zeit Auen-Temp. Temp gefhlt Luftfeuchte Luftdruck Regen Wind Richtung Richtung Taupunkt Windben
19.10.2015 00:00 4,3 C 4,2 C 92 % 1016,0 hPa 0,0 mm 0,3 km/h (0 Bft) NO 45 3,1 C 0,0 km/h (0 Bft)
19.10.2015 00:05 4,3 C 4,2 C 92 % 1016,0 hPa 0,0 mm 0,0 km/h (0 Bft) O-NO 67 3,1 C 0,0 km/h (0 Bft)
19.10.2015 00:10 4,2 C 4,2 C 89 % 1016,1 hPa 0,0 mm 0,0 km/h (0 Bft) O-NO 67 2,6 C 0,0 km/h (0 Bft)
19.10.2015 00:15 4,2 C 4,2 C 89 % 1016,1 hPa 0,0 mm 0,0 km/h (0 Bft) O 90 2,6 C 0,0 km/h (0 Bft)
19.10.2015 00:20 4,2 C 4,1 C 92 % 1016,1 hPa 0,0 mm 0,0 km/h (0 Bft) O 90 3,0 C 0,0 km/h (0 Bft)
19.10.2015 00:25 4,2 C 4,1 C 92 % 1016,1 hPa 0,0 mm 0,0 km/h (0 Bft) S 180 3,0 C 0,0 km/h (0 Bft)
19.10.2015 00:30 4,2 C 4,1 C 92 % 1016,1 hPa 0,0 mm 0,0 km/h (0 Bft) SO 135 3,0 C 0,0 km/h (0 Bft)
19.10.2015 00:35 4,2 C 4,1 C 92 % 1016,1 hPa 0,0 mm 0,0 km/h (0 Bft) SO 135 3,0 C 0,0 km/h (0 Bft)
19.10.2015 00:40 4,2 C 4,0 C 92 % 1016,1 hPa 0,0 mm 0,0 km/h (0 Bft) S-SO 157 3,0 C 0,0 km/h (0 Bft)
19.10.2015 00:45 4,1 C 4,0 C 89 % 1016,1 hPa 0,0 mm 0,0 km/h (0 Bft) S 180 2,5 C 0,0 km/h (0 Bft)
19.10.2015 00:50 4,1 C 4,0 C 89 % 1015,8 hPa 0,0 mm 0,0 km/h (0 Bft) W-NW 292 2,5 C 0,0 km/h (0 Bft)
19.10.2015 00:55 4,2 C 4,1 C 92 % 1015,8 hPa 0,0 mm 0,0 km/h (0 Bft) W-NW 292 3,0 C 0,0 km/h (0 Bft)
19.10.2015 01:00 4,2 C 4,1 C 92 % 1015,8 hPa 0,0 mm 0,0 km/h (0 Bft) W-NW 292 3,0 C 0,0 km/h (0 Bft)
19.10.2015 01:05 4,2 C 4,1 C 92 % 1015,8 hPa 0,0 mm 0,0 km/h (0 Bft) NW 315 3,0 C 0,0 km/h (0 Bft)
19.10.2015 01:10 4,2 C 4,1 C 92 % 1015,9 hPa 0,0 mm 0,0 km/h (0 Bft) W 270 3,0 C 0,0 km/h (0 Bft)
19.10.2015 01:15 4,2 C 4,1 C 92 % 1015,9 hPa 0,0 mm 0,0 km/h (0 Bft) W 270 3,0 C 0,0 km/h (0 Bft)
19.10.2015 01:20 4,2 C 4,1 C 89 % 1015,9 hPa 0,0 mm 0,0 km/h (0 Bft) W 270 2,6 C 0,0 km/h (0 Bft)
19.10.2015 01:25 4,2 C 4,1 C 92 % 1015,9 hPa 0,0 mm 0,0 km/h (0 Bft) W-SW 247 3,0 C 0,0 km/h (0 Bft)
19.10.2015 01:30 4,2 C 4,1 C 92 % 1015,8 hPa 0,0 mm 0,0 km/h (0 Bft) W-SW 247 3,0 C 0,0 km/h (0 Bft)
19.10.2015 01:35 4,2 C 4,1 C 92 % 1015,8 hPa 0,0 mm 0,0 km/h (0 Bft) W-SW 247 3,0 C 0,0 km/h (0 Bft)
19.10.2015 01:40 4,2 C 4,1 C 92 % 1015,8 hPa 0,0 mm 0,0 km/h (0 Bft) W-SW 247 3,0 C 0,0 km/h (0 Bft)
19.10.2015 01:45 4,2 C 4,1 C 92 % 1015,8 hPa 0,0 mm 0,0 km/h (0 Bft) W-SW 247 3,0 C 0,0 km/h (0 Bft)
19.10.2015 01:50 4,1 C 4,0 C 89 % 1015,8 hPa 0,0 mm 0,0 km/h (0 Bft) W-SW 247 2,5 C 0,0 km/h (0 Bft)
19.10.2015 01:55 4,1 C 4,0 C 89 % 1015,8 hPa 0,0 mm 0,0 km/h (0 Bft) W-SW 247 2,5 C 0,0 km/h (0 Bft)
19.10.2015 02:00 4,1 C 4,1 C 89 % 1015,8 hPa 0,0 mm 0,0 km/h (0 Bft) W-SW 247 2,5 C 0,0 km/h (0 Bft)
19.10.2015 02:02 4,1 C 4,1 C 89 % 1015,8 hPa 0,0 mm 0,0 km/h (0 Bft) W-SW 247 2,5 C 0,0 km/h (0 Bft)
19.10.2015 02:05 4,1 C 4,1 C 89 % 1015,8 hPa 0,0 mm 0,0 km/h (0 Bft) NW 315 2,5 C 0,0 km/h (0 Bft)
19.10.2015 02:10 4,1 C 4,1 C 89 % 1015,9 hPa 0,0 mm 0,0 km/h (0 Bft) NW 315 2,5 C 0,0 km/h (0 Bft)
19.10.2015 02:15 4,1 C 4,1 C 89 % 1015,9 hPa 0,0 mm 0,0 km/h (0 Bft) S 180 2,5 C 0,0 km/h (0 Bft)
19.10.2015 02:20 4,1 C 4,0 C 89 % 1015,9 hPa 0,0 mm 0,0 km/h (0 Bft) S 180 2,5 C 0,0 km/h (0 Bft)
19.10.2015 02:25 4,1 C 4,0 C 92 % 1015,9 hPa 0,0 mm 0,0 km/h (0 Bft) S 180 2,9 C 0,0 km/h (0 Bft)
19.10.2015 02:30 4,1 C 4,0 C 92 % 1015,7 hPa 0,0 mm 0,0 km/h (0 Bft) S 180 2,9 C 0,0 km/h (0 Bft)
19.10.2015 02:35 4,1 C 4,0 C 92 % 1015,7 hPa 0,0 mm 0,0 km/h (0 Bft) W-SW 247 2,9 C 0,0 km/h (0 Bft)
19.10.2015 02:40 4,1 C 4,0 C 89 % 1015,7 hPa 0,0 mm 0,0 km/h (0 Bft) W-SW 247 2,5 C 0,0 km/h (0 Bft)
19.10.2015 02:45 4,1 C 4,1 C 89 % 1015,7 hPa 0,0 mm 0,0 km/h (0 Bft) W-NW 292 2,5 C 0,0 km/h (0 Bft)
19.10.2015 02:50 4,2 C 4,1 C 93 % 1015,9 hPa 0,0 mm 0,0 km/h (0 Bft) W-NW 292 3,2 C 0,0 km/h (0 Bft)
19.10.2015 02:55 4,2 C 4,2 C 89 % 1015,9 hPa 0,0 mm 0,0 km/h (0 Bft) W-NW 292 2,6 C 0,0 km/h (0 Bft)
19.10.2015 03:00 4,2 C 4,2 C 89 % 1015,9 hPa 0,0 mm 0,0 km/h (0 Bft) W-NW 292 2,6 C 0,0 km/h (0 Bft)
19.10.2015 03:05 4,2 C 4,2 C 89 % 1015,9 hPa 0,0 mm 0,0 km/h (0 Bft) W-NW 292 2,6 C 0,0 km/h (0 Bft)
19.10.2015 03:10 4,2 C 4,2 C 89 % 1016,0 hPa 0,0 mm 0,0 km/h (0 Bft) W-NW 292 2,6 C 0,0 km/h (0 Bft)
19.10.2015 03:15 4,2 C 4,2 C 89 % 1016,0 hPa 0,0 mm 0,0 km/h (0 Bft) W-NW 292 2,6 C 0,0 km/h (0 Bft)
19.10.2015 03:20 4,2 C 4,2 C 89 % 1016,0 hPa 0,0 mm 0,0 km/h (0 Bft) W-NW 292 2,6 C 0,0 km/h (0 Bft)
19.10.2015 03:25 4,2 C 4,2 C 89 % 1016,0 hPa 0,0 mm 0,0 km/h (0 Bft) W-NW 292 2,6 C 0,0 km/h (0 Bft)
19.10.2015 03:30 4,2 C 4,2 C 89 % 1016,0 hPa 0,0 mm 0,5 km/h (0 Bft) N-NW 337 2,6 C 0,0 km/h (0 Bft)
19.10.2015 03:35 4,2 C 4,2 C 89 % 1016,0 hPa 0,0 mm 0,8 km/h (0 Bft) NO 45 2,6 C 2,6 km/h (1 Bft)
19.10.2015 03:40 4,2 C 4,2 C 89 % 1016,0 hPa 0,7 mm 0,3 km/h (0 Bft) NW 315 2,6 C 0,0 km/h (0 Bft)
19.10.2015 03:45 4,2 C 4,1 C 93 % 1016,0 hPa 0,0 mm 0,5 km/h (0 Bft) NW 315 3,2 C 0,0 km/h (0 Bft)
19.10.2015 03:50 4,2 C 4,1 C 93 % 1015,9 hPa 0,0 mm 0,8 km/h (0 Bft) NW 315 3,2 C 0,0 km/h (0 Bft)
19.10.2015 03:55 4,2 C 4,1 C 93 % 1015,9 hPa 0,0 mm 0,8 km/h (0 Bft) N-NO 22 3,2 C 2,8 km/h (1 Bft)
19.10.2015 04:00 4,2 C 4,1 C 93 % 1015,9 hPa 0,0 mm 2,1 km/h (1 Bft) N-NO 22 3,2 C 8,3 km/h (2 Bft)
19.10.2015 04:05 4,2 C 4,1 C 93 % 1015,9 hPa 0,0 mm 3,9 km/h (1 Bft) N-NO 22 3,2 C 5,4 km/h (1 Bft)
19.10.2015 04:10 4,2 C 4,1 C 93 % 1015,8 hPa 0,0 mm 3,6 km/h (1 Bft) NW 315 3,2 C 9,8 km/h (2 Bft)
19.10.2015 04:15 4,2 C 4,1 C 93 % 1015,8 hPa 0,0 mm 3,4 km/h (1 Bft) NW 315 3,2 C 4,1 km/h (1 Bft)
19.10.2015 04:20 4,2 C 4,1 C 93 % 1015,8 hPa 0,0 mm 3,4 km/h (1 Bft) N-NO 22 3,2 C 8,8 km/h (2 Bft)
19.10.2015 04:25 4,1 C 4,0 C 93 % 1015,8 hPa 0,0 mm 4,1 km/h (1 Bft) NW 315 3,1 C 7,3 km/h (2 Bft)
19.10.2015 04:30 4,0 C 3,9 C 93 % 1015,9 hPa 0,0 mm 4,7 km/h (1 Bft) O-NO 67 3,0 C 11,9 km/h (2 Bft)
19.10.2015 04:35 4,0 C 3,9 C 93 % 1015,9 hPa 0,0 mm 3,6 km/h (1 Bft) O-NO 67 3,0 C 4,1 km/h (1 Bft)
19.10.2015 04:40 4,0 C 3,9 C 93 % 1015,9 hPa 0,0 mm 2,3 km/h (1 Bft) NO 45 3,0 C 3,4 km/h (1 Bft)
19.10.2015 04:45 4,0 C 3,8 C 93 % 1015,9 hPa 0,0 mm 2,1 km/h (1 Bft) O-NO 67 3,0 C 0,0 km/h (0 Bft)
19.10.2015 04:50 4,0 C 3,8 C 93 % 1015,9 hPa 0,0 mm 1,6 km/h (1 Bft) NO 45 3,0 C 0,0 km/h (0 Bft)
19.10.2015 04:55 3,8 C 3,8 C 90 % 1015,9 hPa 0,0 mm 0,3 km/h (0 Bft) NO 45 2,3 C 0,0 km/h (0 Bft)
19.10.2015 05:00 3,8 C 3,8 C 90 % 1015,9 hPa 0,0 mm 0,0 km/h (0 Bft) N-NO 22 2,3 C 0,0 km/h (0 Bft)
19.10.2015 05:05 3,8 C 3,8 C 90 % 1015,9 hPa 0,0 mm 0,0 km/h (0 Bft) O 90 2,3 C 0,0 km/h (0 Bft)
19.10.2015 05:10 3,8 C 3,7 C 90 % 1015,8 hPa 0,0 mm 0,0 km/h (0 Bft) S 180 2,3 C 0,0 km/h (0 Bft)
19.10.2015 05:15 3,8 C 3,7 C 90 % 1015,8 hPa 0,0 mm 0,0 km/h (0 Bft) S 180 2,3 C 0,0 km/h (0 Bft)
19.10.2015 05:20 3,8 C 3,6 C 93 % 1015,8 hPa 0,0 mm 0,0 km/h (0 Bft) S 180 2,8 C 0,0 km/h (0 Bft)
19.10.2015 05:25 3,7 C 3,6 C 90 % 1015,8 hPa 0,0 mm 0,0 km/h (0 Bft) S 180 2,2 C 0,0 km/h (0 Bft)
19.10.2015 05:30 3,7 C 3,6 C 90 % 1015,9 hPa 0,0 mm 0,0 km/h (0 Bft) S 180 2,2 C 0,0 km/h (0 Bft)
19.10.2015 05:35 3,7 C 3,7 C 90 % 1015,9 hPa 0,0 mm 0,0 km/h (0 Bft) S 180 2,2 C 0,0 km/h (0 Bft)
19.10.2015 05:40 3,8 C 3,7 C 90 % 1015,9 hPa 0,0 mm 0,0 km/h (0 Bft) W 270 2,3 C 0,0 km/h (0 Bft)
19.10.2015 05:45 3,8 C 3,7 C 90 % 1015,9 hPa 0,0 mm 0,0 km/h (0 Bft) W 270 2,3 C 0,0 km/h (0 Bft)
19.10.2015 05:50 3,8 C 3,7 C 90 % 1016,1 hPa 0,0 mm 0,0 km/h (0 Bft) W 270 2,3 C 0,0 km/h (0 Bft)
19.10.2015 05:55 3,7 C 3,7 C 90 % 1016,1 hPa 0,0 mm 0,0 km/h (0 Bft) W 270 2,2 C 0,0 km/h (0 Bft)
19.10.2015 06:00 3,7 C 3,6 C 90 % 1016,1 hPa 0,0 mm 0,0 km/h (0 Bft) S-SW 202 2,2 C 0,0 km/h (0 Bft)
19.10.2015 06:05 3,7 C 3,6 C 90 % 1016,1 hPa 0,0 mm 0,0 km/h (0 Bft) W-SW 247 2,2 C 0,0 km/h (0 Bft)
19.10.2015 06:10 3,7 C 3,6 C 90 % 1016,2 hPa 0,0 mm 0,0 km/h (0 Bft) SW 225 2,2 C 0,0 km/h (0 Bft)
19.10.2015 06:15 3,7 C 3,6 C 90 % 1016,2 hPa 0,0 mm 0,0 km/h (0 Bft) N-NO 22 2,2 C 0,0 km/h (0 Bft)
19.10.2015 06:20 3,7 C 3,6 C 90 % 1016,2 hPa 0,0 mm 0,0 km/h (0 Bft) S 180 2,2 C 0,0 km/h (0 Bft)
19.10.2015 06:25 3,7 C 3,6 C 90 % 1016,2 hPa 0,0 mm 0,0 km/h (0 Bft) W-SW 247 2,2 C 0,0 km/h (0 Bft)
19.10.2015 06:30 3,7 C 3,6 C 90 % 1016,2 hPa 0,0 mm 0,0 km/h (0 Bft) W-SW 247 2,2 C 0,0 km/h (0 Bft)
19.10.2015 06:35 3,7 C 3,6 C 90 % 1016,2 hPa 0,0 mm 0,0 km/h (0 Bft) SW 225 2,2 C 0,0 km/h (0 Bft)
19.10.2015 06:40 3,7 C 3,7 C 90 % 1016,2 hPa 0,0 mm 0,0 km/h (0 Bft) S 180 2,2 C 0,0 km/h (0 Bft)
19.10.2015 06:45 3,7 C 3,7 C 90 % 1016,2 hPa 0,0 mm 0,3 km/h (0 Bft) W-SW 247 2,2 C 0,0 km/h (0 Bft)
19.10.2015 06:50 3,7 C 3,7 C 90 % 1016,1 hPa 0,0 mm 0,3 km/h (0 Bft) SW 225 2,2 C 0,0 km/h (0 Bft)
19.10.2015 06:55 3,7 C 3,6 C 90 % 1016,1 hPa 0,0 mm 0,0 km/h (0 Bft) W-SW 247 2,2 C 0,0 km/h (0 Bft)
19.10.2015 07:00 3,7 C 3,6 C 90 % 1016,1 hPa 0,0 mm 0,0 km/h (0 Bft) W-SW 247 2,2 C 0,0 km/h (0 Bft)
19.10.2015 07:05 3,7 C 3,7 C 90 % 1016,1 hPa 0,0 mm 0,0 km/h (0 Bft) SW 225 2,2 C 3,9 km/h (1 Bft)
19.10.2015 07:10 3,7 C 3,6 C 90 % 1016,4 hPa 0,0 mm 0,3 km/h (0 Bft) W-SW 247 2,2 C 0,0 km/h (0 Bft)
19.10.2015 07:15 3,7 C 3,6 C 90 % 1016,4 hPa 0,0 mm 0,5 km/h (0 Bft) W-SW 247 2,2 C 0,0 km/h (0 Bft)
19.10.2015 07:20 3,7 C 3,6 C 90 % 1016,4 hPa 0,0 mm 0,3 km/h (0 Bft) SW 225 2,2 C 0,0 km/h (0 Bft)
19.10.2015 07:25 3,7 C 3,6 C 90 % 1016,4 hPa 0,0 mm 0,3 km/h (0 Bft) S 180 2,2 C 0,0 km/h (0 Bft)
19.10.2015 07:30 3,7 C 3,6 C 90 % 1016,1 hPa 0,0 mm 0,3 km/h (0 Bft) SW 225 2,2 C 0,0 km/h (0 Bft)
19.10.2015 07:35 3,6 C 3,6 C 90 % 1016,1 hPa 0,0 mm 0,0 km/h (0 Bft) S-SW 202 2,1 C 0,0 km/h (0 Bft)
19.10.2015 07:40 3,5 C 3,5 C 90 % 1016,1 hPa 0,0 mm 0,0 km/h (0 Bft) SW 225 2,0 C 0,0 km/h (0 Bft)
19.10.2015 07:45 3,5 C 3,5 C 90 % 1016,1 hPa 0,0 mm 0,5 km/h (0 Bft) W-SW 247 2,0 C 0,0 km/h (0 Bft)
19.10.2015 07:50 3,5 C 3,5 C 90 % 1016,2 hPa 0,0 mm 0,5 km/h (0 Bft) SW 225 2,0 C 0,0 km/h (0 Bft)
19.10.2015 07:55 3,4 C 3,4 C 90 % 1016,2 hPa 0,0 mm 0,0 km/h (0 Bft) S 180 1,9 C 0,0 km/h (0 Bft)
19.10.2015 08:00 3,4 C 3,3 C 90 % 1016,2 hPa 0,0 mm 0,0 km/h (0 Bft) W-SW 247 1,9 C 0,0 km/h (0 Bft)
19.10.2015 08:04 3,4 C 3,3 C 90 % 1016,2 hPa 0,0 mm 0,0 km/h (0 Bft) W-SW 247 1,9 C 0,0 km/h (0 Bft)
19.10.2015 08:05 3,4 C 3,4 C 90 % 1016,2 hPa 0,0 mm 0,5 km/h (0 Bft) N-NO 22 1,9 C 2,8 km/h (1 Bft)
19.10.2015 08:10 3,4 C 3,4 C 90 % 1016,6 hPa 0,7 mm 0,5 km/h (0 Bft) NW 315 1,9 C 0,0 km/h (0 Bft)
19.10.2015 08:15 3,4 C 3,3 C 90 % 1016,6 hPa 0,0 mm 1,8 km/h (1 Bft) SW 225 1,9 C 3,1 km/h (1 Bft)
19.10.2015 08:20 3,4 C 3,3 C 90 % 1016,6 hPa 0,0 mm 1,3 km/h (1 Bft) S 180 1,9 C 0,0 km/h (0 Bft)
19.10.2015 08:25 3,4 C 3,3 C 90 % 1016,6 hPa 0,0 mm 0,5 km/h (0 Bft) O-SO 112 1,9 C 0,0 km/h (0 Bft)
19.10.2015 08:30 3,4 C 3,3 C 90 % 1016,7 hPa 0,0 mm 0,0 km/h (0 Bft) O-SO 112 1,9 C 0,0 km/h (0 Bft)
19.10.2015 08:35 3,4 C 3,3 C 90 % 1016,7 hPa 0,0 mm 0,0 km/h (0 Bft) S-SO 157 1,9 C 0,0 km/h (0 Bft)
19.10.2015 08:40 3,4 C 3,3 C 90 % 1016,7 hPa 0,0 mm 0,0 km/h (0 Bft) S-SO 157 1,9 C 0,0 km/h (0 Bft)
19.10.2015 08:45 3,4 C 3,4 C 90 % 1016,7 hPa 0,0 mm 0,0 km/h (0 Bft) S-SW 202 1,9 C 0,0 km/h (0 Bft)
19.10.2015 08:50 3,4 C 3,4 C 90 % 1016,8 hPa 0,0 mm 0,0 km/h (0 Bft) S 180 1,9 C 0,0 km/h (0 Bft)
19.10.2015 08:55 3,4 C 3,4 C 90 % 1016,8 hPa 0,0 mm 0,0 km/h (0 Bft) SW 225 1,9 C 0,0 km/h (0 Bft)
19.10.2015 09:00 3,4 C 3,5 C 90 % 1016,8 hPa 0,0 mm 0,0 km/h (0 Bft) W-SW 247 1,9 C 0,0 km/h (0 Bft)
19.10.2015 09:05 3,5 C 3,5 C 90 % 1016,8 hPa 0,0 mm 0,0 km/h (0 Bft) N-NW 337 2,0 C 2,6 km/h (1 Bft)
19.10.2015 09:10 3,5 C 3,5 C 90 % 1016,9 hPa 0,0 mm 0,0 km/h (0 Bft) N-NW 337 2,0 C 0,0 km/h (0 Bft)
19.10.2015 09:15 3,5 C 3,6 C 90 % 1016,9 hPa 0,0 mm 0,0 km/h (0 Bft) W-NW 292 2,0 C 0,0 km/h (0 Bft)
19.10.2015 09:20 3,5 C 3,6 C 90 % 1016,9 hPa 0,0 mm 0,0 km/h (0 Bft) SW 225 2,0 C 0,0 km/h (0 Bft)
19.10.2015 09:25 3,5 C 3,6 C 90 % 1016,9 hPa 0,0 mm 0,0 km/h (0 Bft) W-SW 247 2,0 C 0,0 km/h (0 Bft)
19.10.2015 09:30 3,6 C 3,6 C 90 % 1017,1 hPa 0,0 mm 0,0 km/h (0 Bft) SW 225 2,1 C 0,0 km/h (0 Bft)
19.10.2015 09:35 3,6 C 3,6 C 89 % 1017,1 hPa 0,0 mm 0,0 km/h (0 Bft) W-SW 247 2,0 C 0,0 km/h (0 Bft)
19.10.2015 09:40 3,6 C 3,6 C 89 % 1017,1 hPa 0,0 mm 0,0 km/h (0 Bft) S-SW 202 2,0 C 0,0 km/h (0 Bft)
19.10.2015 09:45 3,5 C 3,5 C 90 % 1017,1 hPa 0,0 mm 0,3 km/h (0 Bft) S 180 2,0 C 0,0 km/h (0 Bft)
19.10.2015 09:50 3,5 C 3,6 C 90 % 1017,1 hPa 0,0 mm 0,8 km/h (0 Bft) W-NW 292 2,0 C 5,2 km/h (1 Bft)
19.10.2015 09:55 3,5 C 3,6 C 90 % 1017,1 hPa 0,0 mm 1,6 km/h (1 Bft) O 90 2,0 C 0,0 km/h (0 Bft)
19.10.2015 10:00 3,7 C 3,6 C 92 % 1017,1 hPa 0,0 mm 1,8 km/h (1 Bft) W-SW 247 2,5 C 0,0 km/h (0 Bft)
19.10.2015 10:05 3,5 C 3,6 C 90 % 1017,1 hPa 0,7 mm 1,0 km/h (0 Bft) S-SW 202 2,0 C 4,7 km/h (1 Bft)
19.10.2015 10:10 3,5 C 3,6 C 90 % 1017,3 hPa 0,0 mm 1,8 km/h (1 Bft) SW 225 2,0 C 2,6 km/h (1 Bft)
19.10.2015 10:15 3,6 C 3,7 C 89 % 1017,3 hPa 0,0 mm 2,1 km/h (1 Bft) W-NW 292 2,0 C 3,4 km/h (1 Bft)
19.10.2015 10:20 3,7 C 3,8 C 89 % 1017,3 hPa 0,0 mm 2,3 km/h (1 Bft) W-NW 292 2,1 C 10,9 km/h (2 Bft)
19.10.2015 10:25 3,7 C 3,8 C 89 % 1017,3 hPa 0,0 mm 5,7 km/h (1 Bft) NW 315 2,1 C 10,4 km/h (2 Bft)
19.10.2015 10:30 3,7 C 3,8 C 89 % 1017,4 hPa 0,0 mm 7,0 km/h (2 Bft) W-NW 292 2,1 C 12,4 km/h (3 Bft)
19.10.2015 10:35 3,8 C 4,1 C 90 % 1017,4 hPa 0,0 mm 5,2 km/h (1 Bft) W-SW 247 2,3 C 6,2 km/h (2 Bft)
19.10.2015 10:40 3,8 C 4,2 C 89 % 1017,4 hPa 0,0 mm 3,1 km/h (1 Bft) W 270 2,2 C 14,0 km/h (3 Bft)
19.10.2015 10:45 4,0 C 4,3 C 89 % 1017,4 hPa 0,7 mm 1,6 km/h (1 Bft) W 270 2,4 C 4,4 km/h (1 Bft)
19.10.2015 10:50 4,0 C 4,3 C 89 % 1017,5 hPa 0,0 mm 1,8 km/h (1 Bft) W-NW 292 2,4 C 3,9 km/h (1 Bft)
19.10.2015 10:55 4,0 C 4,4 C 89 % 1017,5 hPa 0,0 mm 2,8 km/h (1 Bft) NW 315 2,4 C 7,0 km/h (2 Bft)
19.10.2015 11:00 4,1 C 4,5 C 89 % 1017,5 hPa 0,0 mm 3,9 km/h (1 Bft) W 270 2,5 C 7,5 km/h (2 Bft)
19.10.2015 11:05 4,1 C 4,6 C 89 % 1017,5 hPa 0,0 mm 5,4 km/h (1 Bft) W-NW 292 2,5 C 7,0 km/h (2 Bft)
19.10.2015 11:10 4,2 C 4,9 C 89 % 1017,6 hPa 0,0 mm 4,9 km/h (1 Bft) W-NW 292 2,6 C 7,5 km/h (2 Bft)
19.10.2015 11:15 4,4 C 5,3 C 89 % 1017,6 hPa 0,0 mm 4,1 km/h (1 Bft) S 180 2,7 C 0,0 km/h (0 Bft)
19.10.2015 11:20 4,5 C 5,5 C 89 % 1017,6 hPa 0,0 mm 3,1 km/h (1 Bft) W-NW 292 2,8 C 4,1 km/h (1 Bft)
19.10.2015 11:25 4,8 C 5,7 C 89 % 1017,6 hPa 0,0 mm 2,1 km/h (1 Bft) W-NW 292 3,1 C 0,0 km/h (0 Bft)
19.10.2015 11:30 4,6 C 5,9 C 89 % 1017,6 hPa 0,0 mm 2,3 km/h (1 Bft) W-NW 292 2,9 C 3,6 km/h (1 Bft)
19.10.2015 11:35 4,8 C 6,5 C 89 % 1017,6 hPa 0,0 mm 2,3 km/h (1 Bft) W-SW 247 3,1 C 3,4 km/h (1 Bft)
19.10.2015 11:40 4,9 C 7,0 C 89 % 1017,6 hPa 0,0 mm 2,3 km/h (1 Bft) W-SW 247 3,2 C 5,4 km/h (1 Bft)
19.10.2015 11:45 5,1 C 7,0 C 88 % 1017,6 hPa 0,0 mm 3,6 km/h (1 Bft) W-NW 292 3,3 C 5,4 km/h (1 Bft)
19.10.2015 11:50 5,6 C 8,2 C 88 % 1017,5 hPa 0,0 mm 3,9 km/h (1 Bft) W 270 3,8 C 4,4 km/h (1 Bft)
19.10.2015 11:55 5,5 C 8,0 C 88 % 1017,5 hPa 0,0 mm 3,9 km/h (1 Bft) NW 315 3,7 C 4,4 km/h (1 Bft)
19.10.2015 12:00 6,1 C 8,4 C 88 % 1017,5 hPa 0,0 mm 5,2 km/h (1 Bft) SW 225 4,3 C 15,0 km/h (3 Bft)
19.10.2015 12:05 6,1 C 8,8 C 88 % 1017,5 hPa 0,0 mm 5,7 km/h (1 Bft) NW 315 4,3 C 7,3 km/h (2 Bft)
19.10.2015 12:10 5,8 C 8,2 C 88 % 1018,9 hPa 0,0 mm 6,0 km/h (2 Bft) W-SW 247 4,0 C 8,0 km/h (2 Bft)
19.10.2015 12:15 5,6 C 7,5 C 88 % 1018,9 hPa 0,0 mm 4,1 km/h (1 Bft) S-SW 202 3,8 C 4,1 km/h (1 Bft)
19.10.2015 12:20 5,7 C 7,3 C 88 % 1018,9 hPa 0,0 mm 3,4 km/h (1 Bft) W-NW 292 3,9 C 4,9 km/h (1 Bft)
19.10.2015 12:25 5,9 C 7,2 C 88 % 1018,9 hPa 0,0 mm 2,6 km/h (1 Bft) W-SW 247 4,1 C 4,1 km/h (1 Bft)
19.10.2015 12:30 6,0 C 7,3 C 87 % 1018,9 hPa 0,0 mm 2,1 km/h (1 Bft) SO 135 4,0 C 3,6 km/h (1 Bft)
19.10.2015 12:35 6,2 C 7,7 C 87 % 1018,9 hPa 0,0 mm 2,8 km/h (1 Bft) NW 315 4,2 C 9,3 km/h (2 Bft)
19.10.2015 12:40 6,2 C 7,8 C 86 % 1018,9 hPa 0,0 mm 4,4 km/h (1 Bft) NW 315 4,0 C 4,7 km/h (1 Bft)
19.10.2015 12:45 6,2 C 8,2 C 86 % 1018,9 hPa 0,0 mm 4,7 km/h (1 Bft) S-SO 157 4,0 C 10,4 km/h (2 Bft)
19.10.2015 12:50 6,4 C 8,6 C 86 % 1018,9 hPa 0,0 mm 3,6 km/h (1 Bft) N-NW 337 4,2 C 3,1 km/h (1 Bft)
19.10.2015 12:55 6,7 C 10,2 C 86 % 1018,9 hPa 0,0 mm 3,1 km/h (1 Bft) W-SW 247 4,5 C 0,0 km/h (0 Bft)
19.10.2015 13:00 6,8 C 10,5 C 86 % 1018,9 hPa 0,0 mm 2,8 km/h (1 Bft) NW 315 4,6 C 5,2 km/h (1 Bft)
19.10.2015 13:05 7,3 C 12,0 C 85 % 1018,9 hPa 0,0 mm 3,9 km/h (1 Bft) W-NW 292 4,9 C 4,4 km/h (1 Bft)
19.10.2015 13:10 8,0 C 13,6 C 85 % 1018,7 hPa 0,0 mm 3,6 km/h (1 Bft) W-NW 292 5,6 C 5,2 km/h (1 Bft)
19.10.2015 13:15 8,1 C 14,9 C 84 % 1018,7 hPa 0,0 mm 4,4 km/h (1 Bft) NW 315 5,6 C 6,7 km/h (2 Bft)
19.10.2015 13:20 7,7 C 13,6 C 84 % 1018,7 hPa 0,0 mm 7,3 km/h (2 Bft) NW 315 5,2 C 13,2 km/h (3 Bft)
19.10.2015 13:25 7,0 C 10,6 C 83 % 1018,7 hPa 0,0 mm 7,8 km/h (2 Bft) W 270 4,3 C 7,5 km/h (2 Bft)
19.10.2015 13:30 6,7 C 9,3 C 83 % 1019,1 hPa 0,0 mm 6,7 km/h (2 Bft) NW 315 4,0 C 6,2 km/h (2 Bft)
19.10.2015 13:35 6,6 C 8,8 C 83 % 1019,1 hPa 0,0 mm 5,4 km/h (1 Bft) S 180 3,9 C 10,4 km/h (2 Bft)
19.10.2015 13:40 6,5 C 8,4 C 82 % 1019,1 hPa 0,0 mm 6,0 km/h (2 Bft) W-NW 292 3,7 C 11,1 km/h (2 Bft)
19.10.2015 13:45 6,3 C 6,8 C 82 % 1019,1 hPa 0,0 mm 9,1 km/h (2 Bft) W 270 3,5 C 7,0 km/h (2 Bft)
19.10.2015 13:50 6,1 C 6,6 C 82 % 1019,1 hPa 0,0 mm 8,5 km/h (2 Bft) NW 315 3,3 C 16,1 km/h (3 Bft)
19.10.2015 13:55 6,0 C 6,3 C 82 % 1019,1 hPa 0,0 mm 7,8 km/h (2 Bft) NW 315 3,2 C 9,8 km/h (2 Bft)
19.10.2015 14:00 5,9 C 6,2 C 83 % 1019,1 hPa 0,0 mm 7,5 km/h (2 Bft) NW 315 3,2 C 5,2 km/h (1 Bft)
19.10.2015 14:04 5,9 C 6,3 C 83 % 1019,1 hPa 0,0 mm 6,2 km/h (2 Bft) N-NO 22 3,2 C 9,3 km/h (2 Bft)
19.10.2015 14:10 5,9 C 6,3 C 83 % 1018,8 hPa 0,0 mm 5,4 km/h (1 Bft) NW 315 3,2 C 7,8 km/h (2 Bft)
19.10.2015 14:15 5,9 C 6,3 C 83 % 1018,8 hPa 0,0 mm 4,4 km/h (1 Bft) N 360 3,2 C 0,0 km/h (0 Bft)
19.10.2015 14:20 5,9 C 6,3 C 83 % 1018,8 hPa 0,0 mm 3,6 km/h (1 Bft) NW 315 3,2 C 4,9 km/h (1 Bft)
19.10.2015 14:25 5,7 C 6,3 C 83 % 1018,8 hPa 0,0 mm 3,4 km/h (1 Bft) NW 315 3,0 C 6,2 km/h (2 Bft)
19.10.2015 14:30 5,7 C 6,3 C 83 % 1018,5 hPa 0,0 mm 3,9 km/h (1 Bft) W-NW 292 3,0 C 5,2 km/h (1 Bft)
19.10.2015 14:35 6,2 C 7,4 C 82 % 1018,5 hPa 0,0 mm 4,1 km/h (1 Bft) O-NO 67 3,4 C 5,2 km/h (1 Bft)
19.10.2015 14:40 6,5 C 9,0 C 82 % 1018,5 hPa 0,0 mm 3,6 km/h (1 Bft) NW 315 3,7 C 3,1 km/h (1 Bft)
19.10.2015 14:45 7,0 C 11,0 C 82 % 1018,5 hPa 0,0 mm 2,8 km/h (1 Bft) NW 315 4,1 C 3,1 km/h (1 Bft)
19.10.2015 14:50 7,7 C 12,4 C 82 % 1018,4 hPa 0,0 mm 2,3 km/h (1 Bft) NW 315 4,8 C 4,9 km/h (1 Bft)
19.10.2015 14:55 7,6 C 12,2 C 82 % 1018,4 hPa 0,0 mm 3,6 km/h (1 Bft) W-NW 292 4,7 C 8,8 km/h (2 Bft)
19.10.2015 15:00 7,1 C 10,9 C 81 % 1018,4 hPa 0,0 mm 5,7 km/h (1 Bft) NW 315 4,1 C 7,8 km/h (2 Bft)
19.10.2015 15:05 6,9 C 9,9 C 80 % 1018,4 hPa 0,0 mm 6,7 km/h (2 Bft) NW 315 3,7 C 14,5 km/h (3 Bft)
19.10.2015 15:10 6,7 C 8,8 C 80 % 1018,7 hPa 0,0 mm 7,8 km/h (2 Bft) N-NW 337 3,5 C 7,5 km/h (2 Bft)
19.10.2015 15:15 6,1 C 6,5 C 80 % 1018,7 hPa 0,0 mm 10,9 km/h (2 Bft) N-NO 22 2,9 C 21,0 km/h (4 Bft)
19.10.2015 15:20 5,7 C 5,7 C 80 % 1018,7 hPa 0,0 mm 10,9 km/h (2 Bft) N-NO 22 2,5 C 12,4 km/h (3 Bft)
19.10.2015 15:25 5,5 C 5,7 C 81 % 1018,7 hPa 0,0 mm 8,5 km/h (2 Bft) SW 225 2,5 C 8,0 km/h (2 Bft)
19.10.2015 15:30 5,4 C 5,6 C 81 % 1018,9 hPa 0,0 mm 7,3 km/h (2 Bft) NO 45 2,4 C 8,0 km/h (2 Bft)
19.10.2015 15:35 5,2 C 5,7 C 81 % 1018,9 hPa 0,0 mm 6,0 km/h (2 Bft) N-NW 337 2,2 C 2,6 km/h (1 Bft)
19.10.2015 15:40 5,2 C 5,9 C 81 % 1018,9 hPa 0,0 mm 4,4 km/h (1 Bft) O-NO 67 2,2 C 5,7 km/h (1 Bft)
19.10.2015 15:45 5,1 C 5,7 C 81 % 1018,9 hPa 0,0 mm 3,6 km/h (1 Bft) O-NO 67 2,1 C 3,4 km/h (1 Bft)
19.10.2015 15:50 5,0 C 5,7 C 81 % 1018,6 hPa 0,0 mm 4,1 km/h (1 Bft) O-NO 67 2,0 C 0,0 km/h (0 Bft)
19.10.2015 15:55 5,1 C 5,8 C 82 % 1018,6 hPa 0,0 mm 2,3 km/h (1 Bft) N 360 2,3 C 0,0 km/h (0 Bft)
19.10.2015 16:00 5,1 C 5,9 C 82 % 1018,6 hPa 0,0 mm 1,0 km/h (0 Bft) O-NO 67 2,3 C 0,0 km/h (0 Bft)
19.10.2015 16:05 5,2 C 6,0 C 82 % 1018,6 hPa 0,0 mm 1,3 km/h (1 Bft) N-NW 337 2,4 C 7,0 km/h (2 Bft)
19.10.2015 16:10 5,1 C 6,0 C 82 % 1018,6 hPa 0,0 mm 2,1 km/h (1 Bft) NW 315 2,3 C 0,0 km/h (0 Bft)
19.10.2015 16:15 5,1 C 6,0 C 82 % 1018,6 hPa 0,0 mm 1,3 km/h (1 Bft) N-NW 337 2,3 C 3,1 km/h (1 Bft)
19.10.2015 16:20 5,1 C 5,9 C 82 % 1018,6 hPa 0,0 mm 0,5 km/h (0 Bft) NW 315 2,3 C 0,0 km/h (0 Bft)
19.10.2015 16:25 5,1 C 5,9 C 82 % 1018,6 hPa 0,0 mm 1,3 km/h (1 Bft) NW 315 2,3 C 0,0 km/h (0 Bft)
19.10.2015 16:30 5,1 C 5,9 C 82 % 1018,3 hPa 0,0 mm 0,8 km/h (0 Bft) N-NW 337 2,3 C 0,0 km/h (0 Bft)
19.10.2015 16:35 5,1 C 5,7 C 82 % 1018,3 hPa 0,0 mm 0,0 km/h (0 Bft) NW 315 2,3 C 0,0 km/h (0 Bft)
19.10.2015 16:40 5,0 C 5,7 C 82 % 1018,3 hPa 0,0 mm 0,0 km/h (0 Bft) W 270 2,2 C 0,0 km/h (0 Bft)
19.10.2015 16:45 4,9 C 5,6 C 82 % 1018,3 hPa 0,0 mm 0,0 km/h (0 Bft) NW 315 2,1 C 0,0 km/h (0 Bft)
19.10.2015 16:50 4,9 C 5,4 C 82 % 1018,4 hPa 0,0 mm 0,0 km/h (0 Bft) W-NW 292 2,1 C 0,0 km/h (0 Bft)
19.10.2015 16:55 4,9 C 5,3 C 82 % 1018,4 hPa 0,0 mm 0,5 km/h (0 Bft) W-SW 247 2,1 C 0,0 km/h (0 Bft)
19.10.2015 17:00 4,8 C 5,1 C 82 % 1018,4 hPa 0,0 mm 0,5 km/h (0 Bft) SW 225 2,0 C 3,1 km/h (1 Bft)
19.10.2015 17:05 4,6 C 4,8 C 82 % 1018,4 hPa 0,0 mm 1,6 km/h (1 Bft) SW 225 1,8 C 0,0 km/h (0 Bft)
19.10.2015 17:10 4,6 C 4,8 C 82 % 1018,3 hPa 0,0 mm 1,6 km/h (1 Bft) SO 135 1,8 C 0,0 km/h (0 Bft)
19.10.2015 17:15 4,5 C 4,7 C 83 % 1018,3 hPa 0,0 mm 0,0 km/h (0 Bft) O 90 1,9 C 0,0 km/h (0 Bft)
19.10.2015 17:20 4,5 C 4,6 C 83 % 1018,3 hPa 0,0 mm 0,0 km/h (0 Bft) O-SO 112 1,9 C 0,0 km/h (0 Bft)
19.10.2015 17:25 4,5 C 4,6 C 83 % 1018,3 hPa 0,0 mm 0,0 km/h (0 Bft) SO 135 1,9 C 0,0 km/h (0 Bft)
19.10.2015 17:30 4,4 C 4,5 C 83 % 1018,3 hPa 0,0 mm 0,0 km/h (0 Bft) SO 135 1,8 C 0,0 km/h (0 Bft)
19.10.2015 17:35 4,3 C 4,4 C 83 % 1018,3 hPa 0,0 mm 0,0 km/h (0 Bft) SO 135 1,7 C 0,0 km/h (0 Bft)
19.10.2015 17:40 4,3 C 4,3 C 83 % 1018,3 hPa 0,0 mm 0,0 km/h (0 Bft) S 180 1,7 C 0,0 km/h (0 Bft)
19.10.2015 17:45 4,2 C 4,2 C 84 % 1018,3 hPa 0,0 mm 0,0 km/h (0 Bft) S 180 1,7 C 0,0 km/h (0 Bft)
19.10.2015 17:50 4,2 C 4,2 C 84 % 1018,2 hPa 0,0 mm 0,0 km/h (0 Bft) S 180 1,7 C 0,0 km/h (0 Bft)
19.10.2015 17:55 4,2 C 4,1 C 84 % 1018,2 hPa 0,0 mm 0,0 km/h (0 Bft) SO 135 1,7 C 0,0 km/h (0 Bft)
19.10.2015 18:00 4,1 C 4,1 C 84 % 1018,2 hPa 0,0 mm 0,0 km/h (0 Bft) S-SO 157 1,6 C 0,0 km/h (0 Bft)
19.10.2015 18:05 4,1 C 4,0 C 85 % 1018,2 hPa 0,0 mm 0,3 km/h (0 Bft) SW 225 1,8 C 3,1 km/h (1 Bft)
19.10.2015 18:10 4,0 C 4,0 C 85 % 1018,3 hPa 0,0 mm 0,3 km/h (0 Bft) S-SW 202 1,7 C 0,0 km/h (0 Bft)
19.10.2015 18:15 4,0 C 3,9 C 85 % 1018,3 hPa 0,0 mm 1,6 km/h (1 Bft) SW 225 1,7 C 4,1 km/h (1 Bft)
19.10.2015 18:20 4,0 C 3,9 C 86 % 1018,3 hPa 0,0 mm 1,6 km/h (1 Bft) W-SW 247 1,9 C 2,8 km/h (1 Bft)
19.10.2015 18:25 4,0 C 3,9 C 86 % 1018,3 hPa 0,0 mm 0,8 km/h (0 Bft) S-SO 157 1,9 C 0,0 km/h (0 Bft)
19.10.2015 18:30 3,9 C 3,8 C 86 % 1018,2 hPa 0,0 mm 0,5 km/h (0 Bft) W-SW 247 1,8 C 0,0 km/h (0 Bft)
19.10.2015 18:35 4,0 C 3,8 C 86 % 1018,2 hPa 0,0 mm 0,0 km/h (0 Bft) S-SW 202 1,9 C 0,0 km/h (0 Bft)
19.10.2015 18:40 4,0 C 3,8 C 86 % 1018,2 hPa 0,0 mm 0,0 km/h (0 Bft) S 180 1,9 C 0,0 km/h (0 Bft)
19.10.2015 18:45 4,0 C 3,8 C 87 % 1018,2 hPa 0,0 mm 0,0 km/h (0 Bft) S-SO 157 2,0 C 0,0 km/h (0 Bft)
19.10.2015 18:50 3,8 C 3,8 C 86 % 1018,6 hPa 0,0 mm 0,0 km/h (0 Bft) S 180 1,7 C 0,0 km/h (0 Bft)
19.10.2015 18:55 3,8 C 3,8 C 86 % 1018,6 hPa 0,0 mm 0,0 km/h (0 Bft) S-SW 202 1,7 C 0,0 km/h (0 Bft)
19.10.2015 19:00 3,8 C 3,8 C 86 % 1018,6 hPa 0,0 mm 0,0 km/h (0 Bft) S 180 1,7 C 0,0 km/h (0 Bft)
19.10.2015 19:05 3,8 C 3,8 C 86 % 1018,6 hPa 0,0 mm 0,3 km/h (0 Bft) S-SO 157 1,7 C 0,0 km/h (0 Bft)
19.10.2015 19:10 3,8 C 3,8 C 86 % 1018,6 hPa 0,0 mm 0,3 km/h (0 Bft) S-SO 157 1,7 C 0,0 km/h (0 Bft)
19.10.2015 19:15 3,8 C 3,8 C 86 % 1018,6 hPa 0,0 mm 0,3 km/h (0 Bft) S 180 1,7 C 0,0 km/h (0 Bft)
19.10.2015 19:20 3,8 C 3,7 C 88 % 1018,6 hPa 0,0 mm 0,0 km/h (0 Bft) S-SO 157 2,0 C 0,0 km/h (0 Bft)
19.10.2015 19:25 3,7 C 3,6 C 86 % 1018,6 hPa 0,0 mm 0,0 km/h (0 Bft) S-SO 157 1,6 C 0,0 km/h (0 Bft)
19.10.2015 19:30 3,7 C 3,6 C 86 % 1018,7 hPa 0,0 mm 0,0 km/h (0 Bft) S-SO 157 1,6 C 0,0 km/h (0 Bft)
19.10.2015 19:35 3,7 C 3,5 C 88 % 1018,7 hPa 0,0 mm 0,0 km/h (0 Bft) S 180 1,9 C 0,0 km/h (0 Bft)
19.10.2015 19:40 3,6 C 3,5 C 88 % 1018,7 hPa 0,0 mm 0,0 km/h (0 Bft) S-SW 202 1,8 C 0,0 km/h (0 Bft)
19.10.2015 19:45 3,5 C 3,4 C 86 % 1018,7 hPa 0,0 mm 0,0 km/h (0 Bft) S 180 1,4 C 0,0 km/h (0 Bft)
19.10.2015 19:50 3,5 C 3,4 C 86 % 1018,9 hPa 0,0 mm 0,0 km/h (0 Bft) S 180 1,4 C 0,0 km/h (0 Bft)
19.10.2015 19:55 3,5 C 3,3 C 89 % 1018,9 hPa 0,0 mm 0,0 km/h (0 Bft) S 180 1,9 C 0,0 km/h (0 Bft)
19.10.2015 20:00 3,5 C 3,3 C 89 % 1018,9 hPa 0,0 mm 0,0 km/h (0 Bft) SW 225 1,9 C 0,0 km/h (0 Bft)
19.10.2015 20:04 3,3 C 3,1 C 89 % 1018,9 hPa 0,0 mm 0,0 km/h (0 Bft) SW 225 1,7 C 0,0 km/h (0 Bft)
19.10.2015 20:05 3,3 C 3,1 C 89 % 1018,9 hPa 0,0 mm 0,0 km/h (0 Bft) SW 225 1,7 C 0,0 km/h (0 Bft)
19.10.2015 20:10 3,2 C 3,1 C 87 % 1018,8 hPa 0,0 mm 0,0 km/h (0 Bft) S-SO 157 1,2 C 0,0 km/h (0 Bft)
19.10.2015 20:15 3,2 C 3,0 C 89 % 1018,8 hPa 0,0 mm 0,0 km/h (0 Bft) S-SO 157 1,6 C 0,0 km/h (0 Bft)
19.10.2015 20:20 3,2 C 3,0 C 89 % 1018,8 hPa 0,0 mm 0,0 km/h (0 Bft) S-SO 157 1,6 C 0,0 km/h (0 Bft)
19.10.2015 20:25 3,0 C 2,7 C 89 % 1018,8 hPa 0,0 mm 0,0 km/h (0 Bft) S-SO 157 1,4 C 0,0 km/h (0 Bft)
19.10.2015 20:30 2,8 C 2,5 C 90 % 1018,8 hPa 0,0 mm 0,0 km/h (0 Bft) S-SO 157 1,3 C 0,0 km/h (0 Bft)
19.10.2015 20:35 2,7 C 2,4 C 90 % 1018,8 hPa 0,0 mm 0,0 km/h (0 Bft) S 180 1,2 C 0,0 km/h (0 Bft)
19.10.2015 20:40 2,8 C 2,4 C 91 % 1018,8 hPa 0,0 mm 0,0 km/h (0 Bft) S 180 1,5 C 0,0 km/h (0 Bft)
19.10.2015 20:45 2,8 C 2,5 C 91 % 1018,8 hPa 0,0 mm 0,0 km/h (0 Bft) S 180 1,5 C 0,0 km/h (0 Bft)
19.10.2015 20:50 2,8 C 2,5 C 91 % 1018,8 hPa 0,0 mm 0,0 km/h (0 Bft) S 180 1,5 C 0,0 km/h (0 Bft)
19.10.2015 20:55 2,7 C 2,5 C 87 % 1018,8 hPa 0,0 mm 0,0 km/h (0 Bft) S 180 0,8 C 0,0 km/h (0 Bft)
19.10.2015 21:00 2,7 C 2,5 C 87 % 1018,8 hPa 0,0 mm 0,0 km/h (0 Bft) S 180 0,8 C 0,0 km/h (0 Bft)
19.10.2015 21:05 2,9 C 2,6 C 91 % 1018,8 hPa 0,0 mm 0,0 km/h (0 Bft) S-SO 157 1,6 C 0,0 km/h (0 Bft)
19.10.2015 21:10 2,9 C 2,7 C 88 % 1018,7 hPa 0,0 mm 0,0 km/h (0 Bft) SO 135 1,1 C 0,0 km/h (0 Bft)
19.10.2015 21:15 2,9 C 2,7 C 88 % 1018,7 hPa 0,0 mm 0,0 km/h (0 Bft) SO 135 1,1 C 0,0 km/h (0 Bft)
19.10.2015 21:20 2,9 C 2,7 C 91 % 1018,7 hPa 0,0 mm 0,0 km/h (0 Bft) SO 135 1,6 C 0,0 km/h (0 Bft)
19.10.2015 21:25 2,7 C 2,5 C 91 % 1018,7 hPa 0,0 mm 0,0 km/h (0 Bft) SW 225 1,4 C 0,0 km/h (0 Bft)
19.10.2015 21:30 2,7 C 2,4 C 91 % 1018,7 hPa 0,0 mm 0,0 km/h (0 Bft) S 180 1,4 C 0,0 km/h (0 Bft)
19.10.2015 21:35 2,7 C 2,4 C 91 % 1018,7 hPa 0,0 mm 0,0 km/h (0 Bft) SO 135 1,4 C 0,0 km/h (0 Bft)
19.10.2015 21:40 2,5 C 2,2 C 91 % 1018,7 hPa 0,0 mm 0,0 km/h (0 Bft) SO 135 1,2 C 0,0 km/h (0 Bft)
19.10.2015 21:45 2,1 C 1,8 C 91 % 1018,7 hPa 0,0 mm 0,0 km/h (0 Bft) SW 225 0,8 C 0,0 km/h (0 Bft)
19.10.2015 21:50 2,1 C 1,7 C 91 % 1018,6 hPa 0,0 mm 0,8 km/h (0 Bft) S 180 0,8 C 4,7 km/h (1 Bft)
19.10.2015 21:55 1,9 C 1,6 C 91 % 1018,6 hPa 0,0 mm 1,6 km/h (1 Bft) S-SO 157 0,6 C 0,0 km/h (0 Bft)
19.10.2015 22:00 1,8 C 1,4 C 91 % 1018,6 hPa 0,0 mm 0,8 km/h (0 Bft) S-SW 202 0,5 C 0,0 km/h (0 Bft)
19.10.2015 22:05 1,2 C 0,9 C 91 % 1018,6 hPa 0,0 mm 0,0 km/h (0 Bft) SW 225 -0,1 C 0,0 km/h (0 Bft)
19.10.2015 22:10 1,3 C 0,9 C 91 % 1018,5 hPa 0,0 mm 0,0 km/h (0 Bft) SW 225 -0,0 C 0,0 km/h (0 Bft)
19.10.2015 22:15 1,3 C 0,9 C 91 % 1018,5 hPa 0,0 mm 0,0 km/h (0 Bft) S 180 -0,0 C 0,0 km/h (0 Bft)
19.10.2015 22:20 0,8 C 0,5 C 91 % 1018,5 hPa 0,0 mm 0,0 km/h (0 Bft) S 180 -0,5 C 0,0 km/h (0 Bft)
19.10.2015 22:25 0,6 C 0,2 C 91 % 1018,5 hPa 0,0 mm 0,0 km/h (0 Bft) W-SW 247 -0,7 C 0,0 km/h (0 Bft)
19.10.2015 22:30 0,7 C 0,2 C 91 % 1018,6 hPa 0,0 mm 0,0 km/h (0 Bft) S 180 -0,6 C 0,0 km/h (0 Bft)
19.10.2015 22:35 0,7 C 0,2 C 91 % 1018,6 hPa 0,0 mm 0,0 km/h (0 Bft) S 180 -0,6 C 0,0 km/h (0 Bft)
19.10.2015 22:40 0,9 C 0,4 C 88 % 1018,6 hPa 0,0 mm 0,0 km/h (0 Bft) S 180 -0,9 C 0,0 km/h (0 Bft)
19.10.2015 22:45 0,7 C 0,4 C 88 % 1018,6 hPa 0,0 mm 0,0 km/h (0 Bft) S-SO 157 -1,1 C 0,0 km/h (0 Bft)
19.10.2015 22:50 0,8 C 0,3 C 92 % 1018,4 hPa 0,0 mm 0,0 km/h (0 Bft) S 180 -0,3 C 0,0 km/h (0 Bft)
19.10.2015 22:55 0,6 C 0,3 C 89 % 1018,4 hPa 0,0 mm 0,0 km/h (0 Bft) S 180 -1,0 C 0,0 km/h (0 Bft)
19.10.2015 23:00 0,6 C 0,2 C 92 % 1018,4 hPa 0,0 mm 0,0 km/h (0 Bft) S 180 -0,5 C 0,0 km/h (0 Bft)
19.10.2015 23:05 0,5 C 0,1 C 92 % 1018,4 hPa 0,0 mm 0,0 km/h (0 Bft) S 180 -0,6 C 0,0 km/h (0 Bft)
19.10.2015 23:10 0,4 C -0,1 C 92 % 1018,5 hPa 0,0 mm 0,0 km/h (0 Bft) S 180 -0,7 C 0,0 km/h (0 Bft)
19.10.2015 23:15 0,2 C -0,3 C 92 % 1018,5 hPa 0,0 mm 0,0 km/h (0 Bft) S 180 -0,9 C 0,0 km/h (0 Bft)
19.10.2015 23:20 0,3 C -0,3 C 92 % 1018,5 hPa 0,0 mm 0,0 km/h (0 Bft) S 180 -0,8 C 0,0 km/h (0 Bft)
19.10.2015 23:25 -0,3 C -0,7 C 92 % 1018,5 hPa 0,0 mm 0,0 km/h (0 Bft) S-SO 157 -1,4 C 0,0 km/h (0 Bft)
19.10.2015 23:30 -0,3 C -0,8 C 92 % 1018,3 hPa 0,0 mm 0,0 km/h (0 Bft) S 180 -1,4 C 0,0 km/h (0 Bft)
19.10.2015 23:35 -0,5 C -1,0 C 92 % 1018,3 hPa 0,0 mm 0,0 km/h (0 Bft) S 180 -1,6 C 0,0 km/h (0 Bft)
19.10.2015 23:40 -0,2 C -0,8 C 92 % 1018,3 hPa 0,0 mm 0,0 km/h (0 Bft) S 180 -1,3 C 0,0 km/h (0 Bft)
19.10.2015 23:45 0,0 C -0,7 C 92 % 1018,3 hPa 0,0 mm 0,0 km/h (0 Bft) S 180 -1,1 C 0,0 km/h (0 Bft)
19.10.2015 23:50 -0,5 C -1,0 C 92 % 1018,6 hPa 0,0 mm 0,0 km/h (0 Bft) S 180 -1,6 C 0,0 km/h (0 Bft)
19.10.2015 23:55 -0,2 C -0,8 C 92 % 1018,6 hPa 0,0 mm 0,0 km/h (0 Bft) S 180 -1,3 C 0,0 km/h (0 Bft)
_ Min-Zeit 23:50 23:50 15:20 02:45 - 23:55 - - 23:50 23:55
Minimum _ -0,5 C -1,0 C 80 % 1015,7 hPa - 0,0 km/h (0 Bft) - - -1,6 C 0,0 km/h (0 Bft)
_ Max-Zeit 13:15 13:15 05:20 14:04 10:45 15:20 - - 13:10 15:15
Maximum _ 8,1 C 14,9 C 93 % 1019,1 hPa 0,7 mm 10,9 km/h
N-NO (2 Bft)
- - 5,6 C 21,0 km/h
N-NO (4 Bft)
Durchschnitt _ 4,0 C 4,3 C 88 % 1017,5 hPa #2,7 mm 1,4 km/h (1 Bft) NW - 2,2 C 2,0 km/h (1 Bft)